Location: Baix
(44.7118°N, 4.7648°E)
Time: 05:33:06
(UTC+00:00)

Vanguard 1 - Pass Details

Date: 05 December 2020
Orbit: 648 x 3834 km, 34.3° (Epoch: 21 January)

Event Time Altitude Azimuth Distance (km) Brightness Sun altitude
Rises 08:20:42 0° 265° (W) 4,127 12.9 10.0°
Reaches altitude 10° 08:23:39 10° 252° (WSW) 3,511 12.7 10.3°
Maximum altitude 08:30:53 25° 200° (SSW) 3,289 13.2 11.2°
Drops below altitude 10° 08:42:00 10° 153° (SSE) 5,540 16.0 12.5°
Sets 08:48:25 0° 143° (SE) 7,097 16.5 13.2°
